Yeovilton, United Kingdom

10:54 AM BST on June 18, 2018 (GMT +0100)
Yeovil Radar Navy

Weather History for EGDY - October, 2017

Change the Weather History Date:

Wednesday, October 11, 2017

  Actual Average Record
Temperature  
Mean Temperature 58 °F -  
Max Temperature 64 °F 54 °F 66 °F (2003)
Min Temperature 50 °F 42 °F 32 °F (2016)
Degree Days  
Heating Degree Days 8    
Growing Degree Days 8 (Base 50)    
Moisture  
Dew Point 53 °F    
Average Humidity 80    
Maximum Humidity 94    
Minimum Humidity 67    
Precipitation  
Precipitation 0.03 in - - ()
Sea Level Pressure  
Sea Level Pressure 29.87 in    
Wind  
Wind Speed 12 mph ()    
Max Wind Speed 23 mph    
Max Gust Speed 33 mph    
Visibility 9.4 miles    
Events Rain    
Averages and records for this station are not official NWS values.
T = Trace of Precipitation, MM = Missing Value Source: Averaged Metar Reports

Daily Weather History Graph

Daily Weather History Graph

Search for Another Location

Airport or City:

Astronomy

Oct. 11, 2017 Rise Set
Actual Time 7:27 AM BST 6:26 PM BST
Civil Twilight 6:54 AM BST 6:59 PM BST
Nautical Twilight 6:15 AM BST 7:37 PM BST
Astronomical Twilight 5:37 AM BST 8:15 PM BST
Moon 10:50 PM BST (10/11) 1:54 PM BST (10/11)
Length of Visible Light 12h 05m
Length of Day
10h 58m
Waning Gibbous, 62% of the Moon is Illuminated
Oct 11
Waning Gibbous
Oct 12
Last Quarter
Oct 19
New
Oct 27
First Quarter
Nov 4
Full

Hourly Weather History & Observations

Time (BST) Temp. Dew Point Humidity Pressure Visibility Wind Dir Wind Speed Gust Speed Precip Events Conditions
12:00 AM 60 °F 56 °F 84% 29.96 in 12 mi SSW 11.5 mph - -   Mostly Cloudy
12:50 AM 59.0 °F 55.4 °F 88% 29.95 in 6.2 mi SSW 10.4 mph - N/A   Mostly Cloudy
1:00 AM 60 °F 56 °F 83% 29.95 in 31 mi SSW 10.4 mph - -   Scattered Clouds
1:50 AM 59.0 °F 55.4 °F 88% 29.95 in 6.2 mi SSW 11.5 mph - N/A   Mostly Cloudy
2:00 AM 60 °F 56 °F 81% 29.95 in 31 mi SSW 11.5 mph - -   Scattered Clouds
2:50 AM 59.0 °F 53.6 °F 82% 29.92 in 6.2 mi SSW 11.5 mph - N/A   Mostly Cloudy
3:00 AM 59 °F 54 °F 79% 29.93 in 12 mi SSW 11.5 mph - -   Mostly Cloudy
3:50 AM 59.0 °F 53.6 °F 82% 29.92 in 6.2 mi SSW 12.7 mph - N/A   Mostly Cloudy
4:00 AM 58 °F 53 °F 78% 29.92 in 12 mi SSW 12.7 mph - -   Mostly Cloudy
4:50 AM 57.2 °F 53.6 °F 88% 29.89 in 6.2 mi SSW 11.5 mph - N/A   Mostly Cloudy
5:00 AM 57 °F 53 °F 81% 29.91 in 12 mi SSW 11.5 mph - -   Mostly Cloudy
5:50 AM 59.0 °F 53.6 °F 82% 29.89 in 6.2 mi SSW 11.5 mph - N/A   Mostly Cloudy
6:00 AM 58 °F 53 °F 77% 29.90 in 16 mi SSW 11.5 mph - -   Mostly Cloudy
6:50 AM 59.0 °F 51.8 °F 77% 29.89 in 6.2 mi SSW 15.0 mph - N/A   Mostly Cloudy
7:00 AM 58 °F 52 °F 74% 29.89 in 16 mi SSW 15.0 mph - -   Mostly Cloudy
7:50 AM 59.0 °F 53.6 °F 82% 29.86 in 6.2 mi SSW 15.0 mph - N/A   Mostly Cloudy
8:00 AM 58 °F 53 °F 77% 29.88 in 12 mi SSW 15.0 mph - -   Mostly Cloudy
8:50 AM 59.0 °F 51.8 °F 77% 29.86 in 6.2 mi SSW 15.0 mph - N/A   Mostly Cloudy
9:00 AM 59 °F 52 °F 70% 29.88 in 16 mi SSW 15.0 mph - -   Mostly Cloudy
9:50 AM 59.0 °F 51.8 °F 77% 29.86 in 4.3 mi SSW 17.3 mph - N/A   Mostly Cloudy
10:50 AM 59.0 °F 53.6 °F 82% 29.86 in 6.2 mi SSW 16.1 mph - N/A   Mostly Cloudy
11:00 AM 59 °F 54 °F 79% 29.86 in 12 mi SSW 16.1 mph - - Rain Light Rain
11:50 AM 60.8 °F 53.6 °F 77% 29.83 in 6.2 mi SSW 18.4 mph - N/A   Mostly Cloudy
12:00 PM 61 °F 54 °F 72% 29.85 in 12 mi SSW 18.4 mph - -   Mostly Cloudy
12:50 PM 62.6 °F 53.6 °F 72% 29.83 in 6.2 mi SSW 19.6 mph 33.4 mph N/A   Mostly Cloudy
1:00 PM 62 °F 54 °F 67% 29.83 in 12 mi SSW 19.6 mph - -   Partly Cloudy
1:50 PM 62.6 °F 55.4 °F 77% 29.80 in 6.2 mi SSW 20.7 mph 33.4 mph N/A   Mostly Cloudy
2:00 PM 63 °F 55 °F 68% 29.81 in 16 mi SSW 20.7 mph - -   Scattered Clouds
2:50 PM 60.8 °F 55.4 °F 82% 29.77 in 6.2 mi SSW 20.7 mph - N/A   Mostly Cloudy
3:00 PM 61 °F 55 °F 75% 29.80 in 12 mi SSW 20.7 mph - -   Mostly Cloudy
3:50 PM 62.6 °F 55.4 °F 77% 29.77 in 6.2 mi SSW 23.0 mph - N/A   Mostly Cloudy
4:00 PM 62 °F 56 °F 75% 29.78 in 9 mi SSW 23.0 mph - -   Partly Cloudy
4:50 PM 62.6 °F 55.4 °F 77% 29.77 in 6.2 mi SW 18.4 mph - N/A   Mostly Cloudy
5:00 PM 62 °F 56 °F 73% 29.78 in 9 mi SW 18.4 mph - -   Mostly Cloudy
5:50 PM 60.8 °F 57.2 °F 88% 29.80 in 6.2 mi SW 13.8 mph - N/A   Mostly Cloudy
6:00 PM 61 °F 57 °F 83% 29.80 in 9 mi SW 13.8 mph - - Rain Light Rain
6:50 PM 55.4 °F 51.8 °F 88% 29.83 in 6.2 mi WSW 9.2 mph - N/A   Scattered Clouds
7:00 PM 55 °F 52 °F 86% 29.84 in 12 mi WSW 9.2 mph - - Rain Light Rain
7:50 PM 55.4 °F 51.8 °F 88% 29.86 in - WSW 9.2 mph - N/A   Clear
8:50 PM 55.4 °F 50.0 °F 82% 29.92 in 6.2 mi WSW 6.9 mph - N/A   Partly Cloudy
9:00 PM 54 °F 50 °F 82% 29.92 in 16 mi WSW 6.9 mph - -   Scattered Clouds
9:50 PM 53.6 °F 50.0 °F 88% 29.92 in - WSW 10.4 mph - N/A   Clear
10:00 PM 54 °F 50 °F 80% 29.94 in 16 mi WSW 10.4 mph - -  
10:50 PM 51.8 °F 48.2 °F 88% 29.95 in - WSW 5.8 mph - N/A   Clear
11:00 PM 53 °F 49 °F 81% 29.97 in 16 mi WSW 5.8 mph - -  
11:50 PM 50.0 °F 48.2 °F 94% 29.98 in 6.2 mi SW 5.8 mph - N/A   Unknown